Weather History for Cooperstown, ND

Change the Weather History Date:

Monday, April 29, 2013

  Actual Average (KJMS) Record (KJMS)
Temperature  
Mean Temperature 44 °F 49 °F  
Max Temperature 62 °F 62 °F 92 °F (1934)
Min Temperature 26 °F 36 °F 14 °F (1958)
Degree Days  
Heating Degree Days 21 16  
Month to date heating degree days 661  
Since 1 July heating degree days 8581  
Cooling Degree Days 0 0  
Month to date cooling degree days 0  
Year to date cooling degree days 0  
Moisture  
Dew Point 36 °F    
Average Humidity 76    
Maximum Humidity 100    
Minimum Humidity 42    
Precipitation  
Precipitation 0.04 in 0.06 in 0.51 in (1989)
Month to date precipitation 1.14  
Year to date precipitation 2.83  
Sea Level Pressure  
Sea Level Pressure 29.67 in    
Wind  
Wind Speed 11 mph (South)    
Max Wind Speed 28 mph    
Max Gust Speed 33 mph    
Visibility 10 miles    
Events Rain    
T = Trace of Precipitation, MM = Missing Value Source: NWS Daily Summary

Daily Weather History Graph

Daily Weather History Graph

Search for Another Location

Airport:

Trip Planner

Search our weather history database for the weather conditions in past years. The results will help you decide how hot, cold, wet, or windy it might be!

Date:

Astronomy

Apr. 29, 2013 Rise Set
Actual Time 6:18 AM CDT 8:41 PM CDT
Civil Twilight 5:44 AM CDT 9:15 PM CDT
Nautical Twilight 5:02 AM CDT 9:58 PM CDT
Astronomical Twilight 4:13 AM CDT 10:47 PM CDT
Moon 12:19 AM CDT (4/29) 9:34 AM CDT (4/29)
Length of Visible Light 15h 31m
Length of Day
14h 23m
Waning Gibbous, 80% of the Moon is Illuminated
Apr 29
Waning Gibbous
May 2
Last Quarter
May 9
New
May 17
First Quarter
May 24
Full

Hourly Weather History & Observations

Time (CDT) Temp. Windchill Dew Point Humidity Pressure Visibility Wind Dir Wind Speed Gust Speed Precip Events Conditions
12:15 AM 35.6 °F 29.2 °F 35.6 °F 100% 29.89 in 10.0 mi WNW 8.1 mph - N/A   Clear
12:35 AM 32.0 °F 24.8 °F 32.0 °F 100% 29.89 in 10.0 mi West 8.1 mph - N/A   Clear
12:55 AM 32.0 °F 24.8 °F 32.0 °F 100% 29.89 in 10.0 mi West 8.1 mph - N/A   Clear
1:15 AM 32.0 °F 24.8 °F 32.0 °F 100% 29.88 in 10.0 mi WNW 8.1 mph - N/A   Clear
1:35 AM 32.0 °F 26.4 °F 32.0 °F 100% 29.88 in 10.0 mi WNW 5.8 mph - N/A   Clear
1:55 AM 32.0 °F 27.5 °F 32.0 °F 100% 29.88 in 10.0 mi NW 4.6 mph - N/A   Clear
2:15 AM 32.0 °F 27.5 °F 32.0 °F 100% 29.87 in 10.0 mi NW 4.6 mph - N/A   Clear
2:35 AM 32.0 °F 28.7 °F 32.0 °F 100% 29.87 in 10.0 mi WNW 3.5 mph - N/A   Clear
2:55 AM 30.2 °F - 30.2 °F 100% 29.86 in 10.0 mi Calm Calm - N/A   Clear
3:15 AM 28.4 °F 24.6 °F 28.4 °F 100% 29.86 in 10.0 mi West 3.5 mph - N/A   Clear
3:35 AM 30.2 °F 25.4 °F 30.2 °F 100% 29.86 in 10.0 mi WSW 4.6 mph - N/A   Clear
3:55 AM 28.4 °F 24.6 °F 28.4 °F 100% 29.85 in 10.0 mi WSW 3.5 mph - N/A   Clear
4:15 AM 28.4 °F 24.6 °F 28.4 °F 100% 29.85 in 10.0 mi SSW 3.5 mph - N/A   Clear
4:35 AM 28.4 °F - 28.4 °F 100% 29.85 in 10.0 mi Calm Calm - N/A   Clear
4:55 AM 28.4 °F 24.6 °F 28.4 °F 100% 29.85 in 10.0 mi SSE 3.5 mph - N/A   Clear
5:15 AM 28.4 °F 22.2 °F 28.4 °F 100% 29.84 in 10.0 mi South 5.8 mph - N/A   Clear
5:55 AM 26.6 °F 22.6 °F 26.6 °F 100% 29.83 in 10.0 mi SSE 3.5 mph - N/A   Clear
6:15 AM 28.4 °F 22.2 °F 28.4 °F 100% 29.84 in 10.0 mi SW 5.8 mph - N/A   Clear
6:35 AM 28.4 °F 23.3 °F 28.4 °F 100% 29.83 in 10.0 mi SSE 4.6 mph - N/A   Clear
6:55 AM 28.4 °F 22.2 °F 28.4 °F 100% 29.81 in 10.0 mi SE 5.8 mph - N/A   Clear
7:15 AM 32.0 °F 25.6 °F 32.0 °F 100% 29.81 in 10.0 mi SSE 6.9 mph - N/A   Clear
7:35 AM 32.0 °F 26.4 °F 32.0 °F 100% 29.80 in 10.0 mi SE 5.8 mph - N/A   Clear
7:55 AM 32.0 °F 26.4 °F 32.0 °F 100% 29.79 in 10.0 mi SSE 5.8 mph - N/A   Clear
8:15 AM 35.6 °F 28.6 °F 33.8 °F 93% 29.78 in 10.0 mi SSE 9.2 mph - N/A   Clear
8:35 AM 37.4 °F 30.8 °F 33.8 °F 87% 29.77 in 10.0 mi SSE 9.2 mph - N/A   Partly Cloudy
8:55 AM 41.0 °F 32.8 °F 32.0 °F 70% 29.77 in 10.0 mi SSE 16.1 mph - N/A   Scattered Clouds
9:15 AM 41.0 °F 33.9 °F 32.0 °F 70% 29.77 in 10.0 mi South 12.7 mph - N/A   Mostly Cloudy
9:35 AM 42.8 °F 34.3 °F 33.8 °F 70% 29.75 in 10.0 mi South 19.6 mph - N/A   Scattered Clouds
9:55 AM 44.6 °F 37.2 °F 33.8 °F 66% 29.74 in 10.0 mi South 17.3 mph - N/A   Partly Cloudy
10:15 AM 46.4 °F 39.0 °F 33.8 °F 62% 29.73 in 10.0 mi SSE 19.6 mph - N/A   Clear
10:35 AM 46.4 °F 39.2 °F 35.6 °F 66% 29.72 in 10.0 mi South 18.4 mph - N/A   Clear
10:55 AM 46.4 °F 39.5 °F 35.6 °F 66% 29.71 in 10.0 mi South 17.3 mph - N/A   Clear
11:15 AM 48.2 °F - 35.6 °F 62% 29.71 in 10.0 mi South 17.3 mph 23.0 mph N/A   Clear
11:35 AM 50.0 °F - 35.6 °F 58% 29.69 in 10.0 mi South 20.7 mph - N/A   Clear
11:55 AM 51.8 °F - 35.6 °F 54% 29.68 in 10.0 mi South 19.6 mph 23.0 mph N/A   Clear
12:15 PM 53.6 °F - 37.4 °F 54% 29.66 in 10.0 mi South 19.6 mph 24.2 mph N/A   Clear
12:35 PM 55.4 °F - 35.6 °F 47% 29.66 in 10.0 mi South 20.7 mph 26.5 mph N/A   Clear
12:55 PM 55.4 °F - 37.4 °F 51% 29.64 in 10.0 mi South 21.9 mph - N/A   Clear
1:15 PM 57.2 °F - 37.4 °F 48% 29.64 in 10.0 mi South 20.7 mph 26.5 mph N/A   Clear
1:35 PM 57.2 °F - 37.4 °F 48% 29.62 in 10.0 mi South 21.9 mph 27.6 mph N/A   Clear
1:55 PM 57.2 °F - 37.4 °F 48% 29.60 in 10.0 mi South 20.7 mph 28.8 mph N/A   Clear
2:15 PM 59.0 °F - 39.2 °F 48% 29.59 in 10.0 mi South 24.2 mph 31.1 mph N/A   Clear
2:35 PM 59.0 °F - 39.2 °F 48% 29.58 in 10.0 mi South 21.9 mph 31.1 mph N/A   Clear
2:55 PM 60.8 °F - 39.2 °F 45% 29.56 in 10.0 mi South 21.9 mph 33.4 mph N/A   Clear
3:15 PM 62.6 °F - 39.2 °F 42% 29.55 in 10.0 mi South 27.6 mph - N/A   Clear
3:35 PM 62.6 °F - 39.2 °F 42% 29.54 in 10.0 mi South 24.2 mph 28.8 mph N/A   Partly Cloudy
3:55 PM 62.6 °F - 39.2 °F 42% 29.53 in 10.0 mi South 24.2 mph 31.1 mph N/A   Partly Cloudy
4:15 PM 62.6 °F - 39.2 °F 42% 29.52 in 10.0 mi South 21.9 mph 27.6 mph N/A   Mostly Cloudy
4:35 PM 62.6 °F - 39.2 °F 42% 29.51 in 10.0 mi South 21.9 mph 27.6 mph N/A   Overcast
4:55 PM 62.6 °F - 39.2 °F 42% 29.50 in 10.0 mi South 20.7 mph - N/A   Overcast
5:15 PM 62.6 °F - 39.2 °F 42% 29.50 in 10.0 mi South 19.6 mph - N/A   Overcast
5:35 PM 62.6 °F - 39.2 °F 42% 29.50 in 10.0 mi South 20.7 mph 26.5 mph N/A   Overcast
5:55 PM 62.6 °F - 41.0 °F 45% 29.49 in 10.0 mi South 13.8 mph - N/A   Mostly Cloudy
6:15 PM 60.8 °F - 41.0 °F 48% 29.49 in 10.0 mi SSE 12.7 mph - N/A   Mostly Cloudy
6:35 PM 59.0 °F - 41.0 °F 51% 29.49 in 10.0 mi SSE 15.0 mph - N/A   Overcast
6:55 PM 59.0 °F - 39.2 °F 48% 29.47 in 10.0 mi SSE 13.8 mph - N/A   Mostly Cloudy
7:15 PM 59.0 °F - 39.2 °F 48% 29.48 in 10.0 mi SSE 12.7 mph - N/A   Mostly Cloudy
7:35 PM 57.2 °F - 39.2 °F 51% 29.48 in 10.0 mi SSE 8.1 mph - N/A   Scattered Clouds
7:55 PM 53.6 °F - 44.6 °F 72% 29.49 in 10.0 mi NNW 15.0 mph - N/A   Partly Cloudy
8:15 PM 53.6 °F - 42.8 °F 67% 29.50 in 10.0 mi North 10.4 mph - N/A   Scattered Clouds
8:35 PM 50.0 °F - 42.8 °F 76% 29.50 in 10.0 mi North 13.8 mph - N/A   Scattered Clouds
8:55 PM 48.2 °F - 44.6 °F 87% 29.50 in 10.0 mi North 16.1 mph - N/A   Scattered Clouds
9:15 PM 48.2 °F - 42.8 °F 82% 29.52 in 10.0 mi North 19.6 mph - N/A Rain Light Rain
9:35 PM 46.4 °F 38.1 °F 46.4 °F 100% 29.49 in 10.0 mi North 24.2 mph 29.9 mph 0.01 in Rain Light Rain
9:55 PM 46.4 °F 38.7 °F 46.4 °F 100% 29.49 in 10.0 mi NNE 20.7 mph 28.8 mph 0.01 in   Partly Cloudy
10:15 PM 46.4 °F 39.5 °F 44.6 °F 93% 29.52 in 10.0 mi North 17.3 mph - N/A   Mostly Cloudy
10:35 PM 46.4 °F 39.0 °F 46.4 °F 100% 29.48 in 5.0 mi NNE 19.6 mph - 0.03 in Rain Light Rain
10:55 PM 46.4 °F 39.0 °F 46.4 °F 100% 29.45 in 10.0 mi NE 19.6 mph 26.5 mph 0.03 in Rain Light Rain
11:15 PM 46.4 °F 39.5 °F 46.4 °F 100% 29.44 in 10.0 mi NE 17.3 mph - N/A   Mostly Cloudy
11:35 PM 46.4 °F 39.2 °F 46.4 °F 100% 29.44 in 10.0 mi NNE 18.4 mph - N/A   Overcast
11:55 PM 44.6 °F 36.6 °F 44.6 °F 100% 29.47 in 10.0 mi North 19.6 mph 24.2 mph N/A Rain Light Rain